Weather History for PAWD - June, 2013

Change the Weather History Date:

Saturday, June 1, 2013

  Actual Average Record
Temperature  
Mean Temperature 48 °F -  
Max Temperature 51 °F 54 °F 71 °F (1957)
Min Temperature 45 °F 42 °F 35 °F (1961)
Degree Days  
Heating Degree Days 17    
Moisture  
Dew Point 44 °F    
Average Humidity 85    
Maximum Humidity 93    
Minimum Humidity 76    
Precipitation  
Precipitation 0.04 in - - ()
Sea Level Pressure  
Sea Level Pressure 30.21 in    
Wind  
Wind Speed 4 mph (SSE)    
Max Wind Speed 10 mph    
Max Gust Speed 16 mph    
Visibility 10 miles    
Events Rain    
Averages and records for this station are not official NWS values.
T = Trace of Precipitation, MM = Missing Value Source: NWS Daily Summary

Daily Weather History Graph

Daily Weather History Graph

Search for Another Location

Airport or City:

Trip Planner

Search our weather history database for the weather conditions in past years. The results will help you decide how hot, cold, wet, or windy it might be!

Date:

Astronomy

Jun. 01, 2013 Rise Set
Actual Time 4:44 AM AKDT 11:07 PM AKDT
Civil Twilight 3:19 AM AKDT 12:34 AM AKDT
Nautical Twilight Sun does not rise Sun does not rise
Astronomical Twilight Sun does not rise Sun does not rise
Moon 2:32 AM AKDT (6/1) 3:08 PM AKDT (6/1)
Length of Visible Light 21h 15m
Length of Day
18h 22m
Last Quarter, 39% of the Moon is Illuminated
Jun 1
Last Quarter
Jun 8
New
Jun 16
First Quarter
Jun 23
Full
Jun 29
Last Quarter

Hourly Weather History & Observations

Time (AKDT) Temp. Windchill Dew Point Humidity Pressure Visibility Wind Dir Wind Speed Gust Speed Precip Events Conditions
12:27 AM 48.2 °F - 44.6 °F 87% 30.21 in 10.0 mi SSE 4.6 mph - N/A   Overcast
12:53 AM 48.0 °F - 44.1 °F 86% 30.22 in 10.0 mi SSE 4.6 mph - N/A   Overcast
1:09 AM 48.2 °F - 44.6 °F 87% 30.21 in 10.0 mi SSE 4.6 mph - N/A   Overcast
1:27 AM 48.2 °F - 44.6 °F 87% 30.21 in 10.0 mi Calm Calm - N/A   Overcast
1:53 AM 48.0 °F - 44.1 °F 86% 30.21 in 10.0 mi Calm Calm - N/A   Overcast
2:35 AM 46.4 °F - 42.8 °F 87% 30.20 in 10.0 mi Calm Calm - N/A   Overcast
2:53 AM 46.0 °F - 43.0 °F 89% 30.20 in 10.0 mi Calm Calm - N/A   Mostly Cloudy
3:17 AM 46.4 °F - 42.8 °F 87% 30.20 in 10.0 mi Calm Calm - N/A   Mostly Cloudy
3:27 AM 46.4 °F - 42.8 °F 87% 30.20 in 10.0 mi Calm Calm - N/A   Mostly Cloudy
3:53 AM 46.9 °F - 43.0 °F 86% 30.20 in 10.0 mi Calm Calm - N/A   Overcast
4:45 AM 46.4 °F - 42.8 °F 87% 30.19 in 10.0 mi Calm Calm - N/A   Overcast
4:53 AM 45.0 °F - 43.0 °F 93% 30.19 in 10.0 mi Calm Calm - N/A   Overcast
5:36 AM 46.4 °F - 42.8 °F 87% 30.18 in 10.0 mi Calm Calm - N/A   Overcast
5:53 AM 46.0 °F - 43.0 °F 89% 30.18 in 10.0 mi Calm Calm - N/A   Overcast
6:53 AM 46.9 °F - 42.1 °F 83% 30.18 in 10.0 mi Calm Calm - N/A   Overcast
7:53 AM 46.9 °F - 43.0 °F 86% 30.18 in 10.0 mi Calm Calm - N/A   Overcast
8:53 AM 48.9 °F - 43.0 °F 80% 30.18 in 10.0 mi Calm Calm - N/A   Overcast
9:16 AM 48.2 °F - 44.6 °F 87% 30.17 in 10.0 mi Calm Calm - N/A   Overcast
9:27 AM 48.2 °F - 44.6 °F 87% 30.17 in 10.0 mi Calm Calm - N/A   Overcast
9:31 AM 48.2 °F - 42.8 °F 82% 30.17 in 10.0 mi Calm Calm - N/A   Overcast
9:53 AM 48.0 °F - 44.1 °F 86% 30.18 in 10.0 mi SSW 4.6 mph - N/A   Overcast
10:53 AM 48.9 °F - 45.0 °F 86% 30.18 in 10.0 mi South 3.5 mph - N/A   Overcast
11:53 AM 48.9 °F - 44.1 °F 83% 30.18 in 10.0 mi South 5.8 mph - N/A   Overcast
12:35 PM 50.0 °F - 44.6 °F 82% 30.18 in 10.0 mi South 5.8 mph - N/A   Overcast
12:53 PM 51.1 °F - 44.1 °F 77% 30.18 in 10.0 mi SSE 6.9 mph - N/A   Overcast
1:16 PM 50.0 °F - 44.6 °F 82% 30.19 in 10.0 mi South 5.8 mph - N/A   Overcast
1:53 PM 50.0 °F - 45.0 °F 83% 30.20 in 10.0 mi South 9.2 mph - N/A   Overcast
2:53 PM 50.0 °F - 46.9 °F 89% 30.20 in 10.0 mi South 5.8 mph - 0.01 in Rain Light Rain
3:53 PM 51.1 °F - 46.0 °F 83% 30.21 in 10.0 mi South 5.8 mph - 0.00 in   Overcast
4:07 PM 51.8 °F - 44.6 °F 76% 30.21 in 10.0 mi SSE 8.1 mph - N/A   Overcast
4:37 PM 51.8 °F - 44.6 °F 76% 30.21 in 10.0 mi SSE 9.2 mph - N/A   Overcast
4:53 PM 51.1 °F - 45.0 °F 80% 30.21 in 10.0 mi SSE 9.2 mph - N/A   Overcast
5:53 PM 51.1 °F - 45.0 °F 80% 30.22 in 10.0 mi South 6.9 mph - N/A   Overcast
6:49 PM 50.0 °F - 44.6 °F 82% 30.22 in 10.0 mi SSE 10.4 mph 16.1 mph N/A   Overcast
6:53 PM 50.0 °F - 45.0 °F 83% 30.22 in 10.0 mi SSE 9.2 mph - N/A   Overcast
7:53 PM 50.0 °F - 44.1 °F 80% 30.22 in 10.0 mi SSE 8.1 mph - N/A   Overcast
8:53 PM 48.9 °F - 44.1 °F 83% 30.23 in 10.0 mi SSE 6.9 mph - N/A   Overcast
9:07 PM 48.2 °F - 44.6 °F 87% 30.23 in 10.0 mi SSE 5.8 mph - N/A   Overcast
9:53 PM 48.0 °F - 45.0 °F 89% 30.24 in 10.0 mi SSE 9.2 mph - 0.00 in Rain Light Rain
10:03 PM 48.2 °F - 44.6 °F 87% 30.23 in 9.0 mi SSE 8.1 mph - 0.02 in Rain Light Rain
10:21 PM 48.2 °F - 44.6 °F 87% 30.24 in 10.0 mi SSE 8.1 mph - 0.02 in Rain Light Rain
10:41 PM 46.4 °F 41.9 °F 44.6 °F 93% 30.24 in 10.0 mi SSE 9.2 mph - 0.02 in Rain Light Rain
10:53 PM 46.9 °F - 45.0 °F 93% 30.25 in 10.0 mi SSE 8.1 mph - 0.02 in Rain Light Rain
11:11 PM 48.2 °F - 44.6 °F 87% 30.25 in 10.0 mi South 8.1 mph - 0.00 in Rain Light Rain
11:18 PM 48.2 °F - 44.6 °F 87% 30.25 in 10.0 mi South 8.1 mph - 0.01 in Rain Light Rain
11:53 PM 48.0 °F - 45.0 °F 89% 30.25 in 10.0 mi South 4.6 mph - 0.01 in   Overcast